QPF
0.02 0.02 0.02 0.02 0.02 0.02 0.02 0.03 0.03 0.03 0.04 0.04 0.04 0.05 0.03 0.02 0.02 0.02 0.03 0.04 0.04 0.03 0.02 0.02 0.01 0.01 0.01 0.02 0.02 0.02 0.03 0.02 0.01 0.01 0.02 0.02 0.03 0.03
0.02 0.02 0.02 0.02 0.03 0.03 0.03 0.03 0.03 0.03 0.03 0.03 0.03 0.05 0.05 0.04 0.03 0.03 0.04 0.04 0.04 0.03 0.02 0.01 0.01 0.01 0.01 0.01 0.01 0.02 0.03 0.02 0.01 0.01 0.01 0.02 0.02 0.03
0.02 0.01 0.02 0.02 0.03 0.04 0.04 0.04 0.05 0.04 0.03 0.03 0.03 0.03 0.04 0.04 0.04 0.04 0.04 0.04 0.03 0.03 0.03 0.01 0.01 0.01 0.01 0.01 0.02 0.02 0.02 0.01 0.01 0.01 0.01 0.02 0.02 0.02
0.01 0.01 0.01 0.01 0.02 0.03 0.05 0.05 0.05 0.05 0.04 0.03 0.03 0.03 0.03 0.04 0.04 0.04 0.03 0.03 0.03 0.03 0.03 0.02 0.01 0.01 0.01 0.02 0.02 0.02 0.02 0.01 0.01 0.01 0.01 0.01 0.02 0.02
0.01 0.01 0.01 0.01 0.01 0.02 0.03 0.04 0.04 0.04 0.03 0.03 0.02 0.02 0.03 0.04 0.04 0.04 0.03 0.03 0.02 0.02 0.02 0.02 0.02 0.02 0.02 0.02 0.02 0.02 0.02 0.01 0.01 0.01 0.01 0.01 0.01 0.02
0.01 0.01 0.01 0.01 0.01 0.02 0.02 0.03 0.03 0.03 0.03 0.03 0.02 0.01 0.02 0.03 0.04 0.03 0.03 0.03 0.02 0.02 0.02 0.03 0.03 0.03 0.03 0.03 0.02 0.02 0.02 0.01 0.01 0.01 0.01 0.01 0.01 0.01
0.01 0.01 0.02 0.02 0.02 0.02 0.02 0.03 0.04 0.03 0.03 0.03 0.02 0.02 0.02 0.02 0.03 0.03 0.02 0.02 0.02 0.02 0.03 0.03 0.02 0.02 0.03 0.03 0.03 0.02 0.02 0.02 0.01 0.01 0.01 0.01 0.01 0.01
0.01 0.02 0.02 0.03 0.02 0.03 0.03 0.03 0.04 0.04 0.03 0.03 0.02 0.02 0.02 0.01 0.02 0.02 0.02 0.02 0.02 0.02 0.03 0.03 0.03 0.03 0.03 0.03 0.04 0.03 0.03 0.02 0.01 0.01 0.01 0.01 0.01 0.01
0.01 0.02 0.02 0.02 0.02 0.02 0.03 0.03 0.03 0.04 0.04 0.03 0.03 0.02 0.02 0.02 0.02 0.02 0.02 0.02 0.02 0.02 0.03 0.03 0.03 0.04 0.04 0.04 0.04 0.03 0.02 0.02 0.01 0.01 0.01 0.01 0.01 0.01
0.02 0.02 0.02 0.02 0.02 0.02 0.02 0.03 0.03 0.03 0.03 0.03 0.03 0.03 0.02 0.02 0.03 0.03 0.02 0.02 0.02 0.02 0.03 0.03 0.03 0.03 0.03 0.04 0.04 0.03 0.02 0.02 0.02 0.01 0.01 0.01 0.01 0.01
0.01 0.01 0.01 0.01 0.02 0.02 0.02 0.03 0.03 0.03 0.03 0.04 0.04 0.04 0.05 0.04 0.04 0.03 0.03 0.02 0.02 0.02 0.02 0.02 0.02 0.02 0.02 0.02 0.02 0.03 0.02 0.02 0.02 0.01 0.01 0.01 0.01 0.01
0.01 0.01 0.01 0.02 0.02 0.02 0.02 0.03 0.03 0.02 0.02 0.03 0.04 0.05 0.04 0.03 0.04 0.03 0.02 0.02 0.02 0.02 0.02 0.02 0.01 0.01 0.02 0.02 0.02 0.02 0.02 0.02 0.02 0.02 0.02 0.02 0.01 0.01
0.01 0.01 0.01 0.02 0.02 0.03 0.03 0.03 0.03 0.02 0.02 0.02 0.03 0.03 0.04 0.04 0.03 0.03 0.03 0.02 0.02 0.02 0.02 0.02 0.02 0.02 0.02 0.02 0.01 0.01 0.02 0.03 0.03 0.04 0.04 0.04 0.04 0.03
0.01 0.01 0.01 0.01 0.02 0.03 0.03 0.04 0.04 0.03 0.03 0.03 0.02 0.02 0.03 0.03 0.02 0.02 0.03 0.03 0.02 0.02 0.01 0.02 0.02 0.02 0.02 0.02 0.01 0.01 0.01 0.02 0.02 0.03 0.03 0.04 0.05 0.05
0.01 0.01 0.01 0.01 0.02 0.02 0.02 0.03 0.03 0.04 0.04 0.03 0.02 0.02 0.02 0.01 0.02 0.02 0.03 0.03 0.03 0.03 0.02 0.02 0.02 0.02 0.02 0.02 0.01 0.01 0.01 0.01 0.01 0.02 0.02 0.03 0.03 0.04
0.01 0.01 0.01 0.01 0.01 0.02 0.02 0.03 0.02 0.02 0.03 0.03 0.02 0.02 0.02 0.01 0.01 0.02 0.02 0.03 0.03 0.03 0.03 0.02 0.02 0.02 0.02 0.02 0.01 0.01 0.01 0.01 0.01 0.02 0.02 0.02 0.03 0.03
0.01 0.01 0.01 0.01 0.01 0.01 0.01 0.02 0.02 0.02 0.02 0.02 0.02 0.02 0.02 0.02 0.02 0.02 0.02 0.02 0.02 0.02 0.02 0.02 0.02 0.02 0.01 0.01 0.01 0.01 0.01 0.01 0.01 0.01 0.02 0.02 0.03 0.03
0.01 0.01 0.01 0.01 0.01 0.01 0.01 0.02 0.02 0.01 0.01 0.01 0.01 0.02 0.03 0.03 0.02 0.02 0.02 0.02 0.02 0.01 0.01 0.01 0.01 0.01 0.01 0.01 0.01 0.01 0.01 0.01 0.01 0.01 0.01 0.02 0.02 0.02
0.01 0.01 0.01 0.01 0.01 0.01 0.01 0.01 0.01 0.01 0.01 0.01 0.01 0.02 0.02 0.02 0.02 0.02 0.02 0.02 0.02 0.02 0.02 0.02 0.01 0.02 0.02 0.01 0.01 0.01 0.01 0.01 0.01 0.01 0.01 0.01 0.02 0.02
0.01 0.01 0.01 0.01 0.01 0.01 0.01 0.01 0.01 0.01 0.01 0.01 0.01 0.01 0.02 0.02 0.02 0.02 0.02 0.02 0.01 0.02 0.02 0.02 0.02 0.02 0.02 0.02 0.02 0.01 0.01 0.01 0.01 0.01 0.01 0.01 0.01 0.02
0.02 0.02 0.02 0.02 0.02 0.01 0.01 0.01 0.01 0.02 0.02 0.02 0.02 0.02 0.01 0.01 0.01 0.01 0.01 0.01 0.02 0.02 0.02 0.02 0.02 0.02 0.03 0.03 0.02 0.02 0.01 0.01 0.01 0.02 0.02 0.02 0.02 0.02
0.02 0.02 0.02 0.01 0.01 0.02 0.02 0.02 0.02 0.02 0.02 0.02 0.02 0.02 0.02 0.02 0.02 0.01 0.01 0.01 0.01 0.02 0.02 0.02 0.02 0.02 0.02 0.02 0.02 0.02 0.02 0.02 0.01 0.01 0.02 0.02 0.02 0.03
0.01 0.01 0.01 0.01 0.01 0.02 0.02 0.02 0.02 0.02 0.02 0.02 0.02 0.02 0.02 0.02 0.02 0.02 0.02 0.02 0.02 0.02 0.02 0.02 0.02 0.02 0.02 0.02 0.02 0.02 0.02 0.02 0.01 0.01 0.01 0.01 0.01 0.01
MSLP
1018.16 1018.10 1018.09 1018.14 1018.23 1018.37 1018.54 1018.72 1018.91 1019.10 1019.29 1019.49 1019.69 1019.90 1020.09 1020.27 1020.41 1020.50 1020.53 1020.51 1020.42 1020.29 1020.15 1020.02 1019.93 1019.90 1019.94 1020.07 1020.27 1020.52 1020.80 1021.10 1021.37 1021.62 1021.83 1021.99 1022.10 1022.15
1018.71 1018.67 1018.66 1018.70 1018.78 1018.87 1018.99 1019.11 1019.23 1019.37 1019.51 1019.67 1019.84 1020.03 1020.23 1020.42 1020.60 1020.73 1020.81 1020.84 1020.81 1020.73 1020.63 1020.52 1020.44 1020.40 1020.41 1020.49 1020.63 1020.82 1021.04 1021.27 1021.50 1021.72 1021.91 1022.07 1022.19 1022.27
1019.20 1019.18 1019.19 1019.22 1019.27 1019.34 1019.41 1019.49 1019.57 1019.65 1019.75 1019.88 1020.03 1020.20 1020.39 1020.59 1020.79 1020.95 1021.07 1021.15 1021.18 1021.15 1021.11 1021.05 1020.99 1020.97 1020.97 1021.03 1021.12 1021.25 1021.40 1021.57 1021.74 1021.90 1022.06 1022.19 1022.31 1022.40
1019.60 1019.60 1019.62 1019.66 1019.70 1019.75 1019.80 1019.85 1019.90 1019.96 1020.03 1020.13 1020.26 1020.42 1020.60 1020.80 1020.99 1021.16 1021.31 1021.42 1021.49 1021.52 1021.52 1021.51 1021.50 1021.50 1021.52 1021.55 1021.62 1021.70 1021.79 1021.90 1022.01 1022.12 1022.23 1022.34 1022.43 1022.51
1019.89 1019.93 1019.97 1020.01 1020.06 1020.11 1020.15 1020.19 1020.24 1020.29 1020.35 1020.44 1020.56 1020.70 1020.86 1021.03 1021.20 1021.36 1021.51 1021.63 1021.71 1021.78 1021.82 1021.86 1021.88 1021.91 1021.95 1021.99 1022.03 1022.08 1022.13 1022.19 1022.25 1022.31 1022.38 1022.45 1022.53 1022.60
1020.09 1020.16 1020.23 1020.29 1020.35 1020.41 1020.47 1020.52 1020.57 1020.63 1020.70 1020.79 1020.89 1021.02 1021.15 1021.29 1021.42 1021.55 1021.67 1021.77 1021.86 1021.93 1021.99 1022.05 1022.11 1022.16 1022.22 1022.26 1022.30 1022.33 1022.36 1022.38 1022.40 1022.43 1022.46 1022.51 1022.57 1022.64
1020.21 1020.31 1020.41 1020.50 1020.58 1020.66 1020.74 1020.81 1020.88 1020.96 1021.05 1021.15 1021.25 1021.35 1021.45 1021.56 1021.65 1021.73 1021.81 1021.88 1021.94 1022.00 1022.07 1022.13 1022.20 1022.27 1022.33 1022.38 1022.42 1022.44 1022.45 1022.45 1022.44 1022.45 1022.47 1022.51 1022.56 1022.63
1020.27 1020.40 1020.53 1020.64 1020.75 1020.86 1020.96 1021.06 1021.16 1021.26 1021.37 1021.48 1021.58 1021.68 1021.76 1021.83 1021.89 1021.93 1021.96 1021.99 1022.02 1022.06 1022.11 1022.17 1022.23 1022.30 1022.36 1022.40 1022.43 1022.44 1022.44 1022.42 1022.41 1022.40 1022.41 1022.45 1022.50 1022.58
1020.29 1020.45 1020.60 1020.74 1020.87 1021.00 1021.12 1021.25 1021.38 1021.51 1021.64 1021.77 1021.88 1021.98 1022.06 1022.12 1022.15 1022.17 1022.17 1022.17 1022.17 1022.18 1022.21 1022.25 1022.29 1022.34 1022.38 1022.41 1022.43 1022.42 1022.40 1022.37 1022.34 1022.33 1022.33 1022.36 1022.42 1022.50
1020.29 1020.47 1020.64 1020.80 1020.95 1021.10 1021.24 1021.39 1021.54 1021.70 1021.86 1022.01 1022.15 1022.27 1022.36 1022.43 1022.46 1022.47 1022.47 1022.46 1022.44 1022.43 1022.44 1022.45 1022.47 1022.49 1022.50 1022.50 1022.48 1022.45 1022.40 1022.35 1022.30 1022.27 1022.26 1022.28 1022.33 1022.40
1020.28 1020.48 1020.67 1020.85 1021.01 1021.17 1021.34 1021.50 1021.67 1021.85 1022.04 1022.22 1022.39 1022.54 1022.66 1022.76 1022.82 1022.85 1022.86 1022.86 1022.85 1022.83 1022.82 1022.81 1022.80 1022.78 1022.75 1022.71 1022.65 1022.58 1022.49 1022.41 1022.33 1022.26 1022.23 1022.22 1022.25 1022.30
1020.28 1020.50 1020.71 1020.90 1021.08 1021.26 1021.43 1021.61 1021.80 1022.01 1022.21 1022.42 1022.63 1022.81 1022.98 1023.11 1023.21 1023.29 1023.33 1023.35 1023.35 1023.34 1023.32 1023.29 1023.25 1023.19 1023.12 1023.03 1022.92 1022.80 1022.67 1022.54 1022.42 1022.31 1022.23 1022.19 1022.18 1022.20
1020.30 1020.54 1020.77 1020.99 1021.19 1021.38 1021.57 1021.77 1021.97 1022.19 1022.42 1022.65 1022.88 1023.10 1023.30 1023.48 1023.62 1023.74 1023.82 1023.87 1023.89 1023.88 1023.85 1023.81 1023.74 1023.64 1023.53 1023.39 1023.23 1023.06 1022.88 1022.70 1022.53 1022.38 1022.25 1022.16 1022.10 1022.07
1020.34 1020.62 1020.87 1021.12 1021.34 1021.55 1021.76 1021.98 1022.20 1022.43 1022.67 1022.91 1023.16 1023.40 1023.63 1023.83 1024.00 1024.15 1024.25 1024.32 1024.35 1024.35 1024.32 1024.25 1024.15 1024.02 1023.86 1023.68 1023.48 1023.26 1023.04 1022.82 1022.61 1022.42 1022.25 1022.11 1021.99 1021.91
1020.41 1020.72 1021.01 1021.28 1021.54 1021.78 1022.02 1022.25 1022.48 1022.72 1022.97 1023.21 1023.46 1023.70 1023.93 1024.13 1024.31 1024.46 1024.57 1024.64 1024.67 1024.66 1024.61 1024.52 1024.39 1024.23 1024.04 1023.83 1023.59 1023.34 1023.09 1022.85 1022.61 1022.38 1022.18 1021.99 1021.84 1021.71
1020.47 1020.82 1021.16 1021.47 1021.77 1022.05 1022.31 1022.56 1022.81 1023.05 1023.29 1023.52 1023.75 1023.97 1024.18 1024.36 1024.52 1024.64 1024.74 1024.79 1024.80 1024.77 1024.69 1024.57 1024.42 1024.23 1024.01 1023.77 1023.52 1023.25 1022.99 1022.73 1022.48 1022.24 1022.02 1021.81 1021.63 1021.47
1020.51 1020.91 1021.29 1021.65 1021.99 1022.30 1022.59 1022.87 1023.12 1023.36 1023.59 1023.80 1024.00 1024.19 1024.35 1024.49 1024.61 1024.69 1024.75 1024.76 1024.74 1024.67 1024.57 1024.42 1024.24 1024.03 1023.79 1023.53 1023.27 1023.00 1022.74 1022.48 1022.23 1021.99 1021.77 1021.56 1021.36 1021.19
1020.51 1020.95 1021.38 1021.78 1022.16 1022.51 1022.83 1023.12 1023.38 1023.62 1023.83 1024.02 1024.18 1024.32 1024.44 1024.53 1024.60 1024.63 1024.64 1024.61 1024.55 1024.45 1024.31 1024.13 1023.93 1023.69 1023.44 1023.18 1022.91 1022.64 1022.38 1022.13 1021.89 1021.67 1021.45 1021.24 1021.05 1020.87
1020.47 1020.94 1021.40 1021.84 1022.25 1022.62 1022.97 1023.27 1023.55 1023.78 1023.98 1024.15 1024.28 1024.38 1024.45 1024.50 1024.52 1024.51 1024.47 1024.41 1024.31 1024.17 1024.01 1023.81 1023.58 1023.33 1023.06 1022.79 1022.51 1022.24 1021.98 1021.73 1021.50 1021.28 1021.08 1020.88 1020.69 1020.52
1020.38 1020.88 1021.36 1021.82 1022.25 1022.64 1023.00 1023.32 1023.60 1023.83 1024.02 1024.17 1024.28 1024.36 1024.40 1024.42 1024.40 1024.36 1024.30 1024.21 1024.08 1023.92 1023.74 1023.52 1023.27 1023.00 1022.71 1022.42 1022.13 1021.84 1021.57 1021.32 1021.08 1020.87 1020.66 1020.47 1020.29 1020.12
1020.27 1020.79 1021.27 1021.74 1022.18 1022.58 1022.94 1023.26 1023.54 1023.77 1023.96 1024.11 1024.21 1024.27 1024.31 1024.31 1024.28 1024.22 1024.14 1024.03 1023.90 1023.72 1023.52 1023.28 1023.02 1022.73 1022.42 1022.10 1021.78 1021.47 1021.17 1020.89 1020.64 1020.41 1020.20 1020.00 1019.83 1019.66
1020.18 1020.69 1021.17 1021.63 1022.06 1022.46 1022.82 1023.13 1023.41 1023.64 1023.83 1023.98 1024.08 1024.14 1024.17 1024.16 1024.13 1024.07 1023.98 1023.87 1023.72 1023.54 1023.32 1023.07 1022.78 1022.46 1022.12 1021.76 1021.41 1021.06 1020.73 1020.42 1020.14 1019.88 1019.66 1019.46 1019.28 1019.12
1020.12 1020.62 1021.09 1021.53 1021.94 1022.32 1022.67 1022.98 1023.25 1023.47 1023.66 1023.80 1023.91 1023.97 1023.99 1023.98 1023.94 1023.87 1023.78 1023.65 1023.49 1023.29 1023.05 1022.77 1022.46 1022.11 1021.73 1021.34 1020.94 1020.55 1020.18 1019.83 1019.52 1019.25 1019.01 1018.80 1018.63 1018.48
Thickness
5495 5497 5499 5500 5502 5503 5505 5507 5510 5515 5519 5519 5517 5516 5515 5515 5515 5515 5515 5514 5514 5514 5515 5515 5515 5515 5515 5514 5514 5513 5512 5511 5510 5509 5509 5508 5508 5507
5484 5486 5488 5489 5490 5491 5493 5495 5497 5500 5504 5507 5505 5504 5503 5503 5503 5504 5504 5504 5504 5504 5505 5505 5505 5504 5504 5503 5502 5502 5501 5500 5498 5498 5497 5497 5496 5495
5474 5476 5477 5478 5479 5481 5482 5483 5485 5487 5490 5493 5491 5491 5491 5492 5492 5493 5493 5494 5494 5494 5494 5494 5494 5493 5492 5492 5491 5490 5489 5488 5487 5486 5485 5485 5484 5483
5463 5464 5466 5466 5467 5469 5471 5473 5474 5475 5478 5480 5480 5479 5480 5480 5481 5481 5482 5483 5483 5483 5483 5483 5482 5481 5481 5480 5479 5478 5477 5476 5475 5474 5473 5473 5472 5471
5452 5453 5454 5455 5456 5458 5459 5461 5463 5463 5465 5467 5468 5467 5468 5468 5468 5469 5470 5471 5471 5471 5471 5471 5470 5469 5469 5468 5467 5466 5465 5464 5463 5462 5461 5460 5460 5459
5440 5441 5442 5443 5444 5446 5447 5449 5450 5451 5453 5454 5456 5456 5456 5456 5456 5458 5459 5460 5460 5459 5459 5459 5459 5458 5457 5457 5456 5455 5453 5452 5451 5450 5449 5448 5447 5447
5429 5429 5430 5431 5432 5433 5434 5436 5437 5438 5440 5442 5444 5444 5444 5444 5445 5445 5446 5447 5447 5447 5447 5448 5448 5448 5447 5446 5444 5443 5441 5441 5440 5439 5438 5437 5436 5435
5418 5419 5419 5419 5419 5420 5421 5422 5423 5425 5427 5429 5432 5433 5433 5433 5433 5433 5433 5433 5434 5434 5433 5434 5434 5436 5435 5434 5433 5431 5430 5429 5428 5427 5426 5425 5425 5425
5407 5407 5408 5408 5408 5409 5409 5410 5410 5411 5412 5416 5419 5420 5421 5421 5420 5421 5420 5420 5421 5419 5418 5421 5421 5422 5422 5422 5420 5419 5418 5418 5416 5416 5415 5415 5415 5415
5396 5396 5397 5397 5398 5398 5398 5399 5399 5400 5402 5404 5407 5408 5408 5407 5407 5407 5407 5406 5406 5406 5405 5406 5408 5408 5409 5409 5408 5407 5407 5406 5406 5405 5405 5405 5405 5406
5385 5385 5386 5386 5387 5387 5388 5389 5390 5390 5390 5390 5392 5393 5394 5394 5394 5393 5394 5394 5395 5395 5393 5393 5395 5395 5396 5398 5397 5396 5395 5395 5395 5395 5395 5395 5396 5397
5376 5376 5375 5376 5376 5376 5377 5378 5379 5380 5380 5381 5381 5382 5383 5383 5382 5382 5383 5383 5382 5382 5382 5380 5381 5380 5383 5386 5386 5385 5385 5386 5385 5385 5386 5386 5386 5387
5367 5367 5367 5366 5366 5367 5367 5368 5369 5369 5370 5371 5372 5373 5373 5373 5372 5372 5371 5371 5371 5371 5370 5368 5368 5368 5369 5372 5375 5375 5375 5376 5376 5377 5377 5377 5377 5377
5358 5358 5358 5357 5357 5358 5358 5358 5358 5359 5360 5361 5362 5363 5363 5363 5362 5361 5360 5360 5360 5361 5360 5359 5358 5359 5359 5361 5363 5366 5366 5366 5367 5368 5369 5369 5369 5369
5350 5350 5349 5349 5349 5350 5350 5350 5350 5350 5351 5352 5354 5354 5353 5352 5352 5351 5351 5351 5351 5352 5352 5351 5351 5350 5350 5351 5353 5355 5356 5358 5359 5360 5360 5361 5362 5362
5343 5342 5342 5342 5342 5342 5342 5342 5342 5342 5342 5343 5343 5343 5343 5342 5342 5343 5343 5343 5343 5344 5343 5343 5343 5342 5343 5344 5345 5347 5348 5349 5351 5352 5352 5353 5354 5355
5335 5335 5335 5335 5336 5335 5335 5335 5335 5335 5335 5334 5334 5334 5334 5334 5334 5334 5334 5335 5335 5336 5336 5335 5335 5335 5336 5337 5339 5341 5342 5343 5344 5344 5344 5346 5348 5349
5328 5329 5329 5328 5328 5328 5329 5329 5328 5328 5327 5326 5325 5325 5325 5325 5326 5326 5326 5327 5327 5328 5328 5328 5328 5329 5330 5332 5332 5335 5336 5336 5336 5336 5337 5338 5341 5342
5321 5321 5321 5321 5321 5321 5321 5321 5320 5320 5319 5318 5317 5317 5317 5318 5318 5319 5320 5320 5320 5320 5321 5321 5321 5323 5325 5327 5328 5327 5328 5329 5329 5330 5331 5332 5333 5335
5314 5314 5314 5314 5314 5314 5314 5314 5313 5313 5312 5311 5311 5310 5311 5311 5313 5313 5314 5313 5313 5314 5315 5315 5316 5317 5318 5319 5319 5320 5321 5322 5323 5324 5325 5325 5326 5328
5307 5307 5307 5307 5308 5308 5308 5307 5307 5307 5306 5305 5305 5305 5306 5306 5307 5307 5308 5307 5308 5309 5310 5311 5311 5310 5311 5312 5313 5315 5316 5316 5316 5317 5318 5319 5321 5324
5300 5300 5301 5301 5302 5302 5302 5302 5302 5301 5301 5301 5300 5301 5301 5301 5302 5302 5302 5303 5304 5304 5304 5305 5305 5306 5307 5308 5309 5310 5310 5311 5312 5312 5313 5313 5315 5317
5294 5294 5295 5296 5296 5296 5296 5297 5297 5297 5296 5296 5296 5296 5296 5297 5297 5298 5298 5299 5299 5300 5300 5301 5302 5302 5302 5303 5304 5305 5305 5306 5308 5309 5309 5310 5310 5311